Total_Precipitation_Accumulation
2.69 2.88 2.85 2.68 2.69 2.83 3.02 3.23 3.27 3.06 2.98 2.86 2.53 2.40 2.38 2.35 2.45 2.32 2.41 2.34 1.89 1.65 1.59 1.57 1.55 1.55 1.62 1.78 2.02 2.34 2.55 2.65 2.79 3.02 3.34 3.72 4.09 4.45
2.94 3.01 2.88 2.63 2.76 2.81 2.93 3.21 3.47 3.52 3.24 2.84 2.61 2.48 2.48 2.21 2.22 2.03 2.08 1.99 1.69 1.52 1.43 1.39 1.34 1.31 1.31 1.37 1.50 1.77 1.98 2.16 2.33 2.44 2.59 2.80 3.09 3.36
2.88 2.80 2.71 2.74 2.89 2.83 2.96 3.12 3.35 3.58 3.31 2.95 2.79 2.74 2.73 2.54 2.35 2.06 1.82 1.71 1.59 1.64 1.48 1.32 1.26 1.24 1.28 1.35 1.42 1.52 1.69 1.89 2.06 2.21 2.36 2.55 2.66 2.78
2.79 2.76 2.66 2.79 2.88 2.85 2.93 2.92 3.00 3.29 3.18 2.97 2.90 2.94 2.82 2.60 2.47 2.28 1.92 1.73 1.75 1.83 1.65 1.46 1.35 1.33 1.29 1.29 1.38 1.46 1.57 1.70 1.85 1.94 1.99 2.04 2.20 2.43
2.74 2.66 2.56 2.67 2.62 2.68 2.69 2.69 2.69 2.79 2.97 2.89 2.79 2.87 2.79 2.60 2.50 2.33 2.21 2.29 2.07 1.90 1.76 1.59 1.47 1.40 1.38 1.31 1.33 1.42 1.53 1.57 1.59 1.72 1.85 1.94 2.00 2.06
2.43 2.36 2.39 2.53 2.63 2.62 2.51 2.49 2.56 2.69 2.78 2.82 2.79 2.87 2.89 2.88 2.76 2.60 2.58 2.50 2.33 1.88 1.80 1.61 1.48 1.36 1.29 1.21 1.23 1.39 1.53 1.59 1.61 1.60 1.67 1.77 1.87 1.96
2.22 2.06 2.10 2.42 2.58 2.53 2.32 2.41 2.49 2.56 2.63 2.75 2.81 2.91 2.97 3.17 2.96 2.66 2.53 2.58 2.42 2.17 2.02 1.80 1.65 1.52 1.46 1.41 1.34 1.35 1.38 1.49 1.59 1.70 1.83 1.92 1.98 2.03
1.98 1.93 1.93 2.00 2.04 2.07 2.05 2.05 2.11 2.20 2.42 2.69 2.77 2.78 2.74 2.84 2.93 2.82 2.72 2.66 2.60 2.49 2.51 2.39 2.05 1.97 1.86 1.70 1.57 1.32 1.18 1.24 1.38 1.50 1.75 2.02 2.25 2.32
1.95 2.02 1.75 1.58 1.71 1.73 1.86 1.84 1.75 1.83 1.97 2.24 2.43 2.44 2.53 2.55 2.81 2.84 2.91 2.95 2.89 2.82 2.81 2.85 2.49 2.17 1.92 1.82 1.73 1.38 1.22 1.17 1.23 1.33 1.46 1.68 1.98 2.30
1.83 1.86 1.81 1.69 1.64 1.76 1.84 1.77 1.61 1.56 1.55 1.54 1.76 2.04 2.28 2.51 2.57 2.64 2.77 2.86 2.88 2.71 2.63 2.70 2.53 2.37 2.04 1.76 1.63 1.42 1.24 1.12 1.09 1.16 1.19 1.26 1.43 1.67
1.80 1.74 1.69 1.62 1.67 1.55 1.50 1.52 1.52 1.51 1.36 1.35 1.42 1.64 1.83 1.90 2.11 2.38 2.61 2.61 2.57 2.38 2.18 2.26 2.32 2.34 2.31 2.04 1.65 1.51 1.30 1.12 1.08 1.09 1.08 1.09 1.16 1.27
1.77 1.73 1.60 1.46 1.44 1.31 1.28 1.44 1.43 1.44 1.47 1.39 1.28 1.31 1.39 1.54 1.64 1.72 2.04 2.27 2.19 2.15 1.91 1.82 1.80 1.94 2.11 1.90 1.62 1.51 1.46 1.32 1.15 1.12 1.10 1.07 1.12 1.07
1.77 1.71 1.65 1.52 1.31 1.26 1.20 1.26 1.34 1.33 1.39 1.43 1.38 1.34 1.43 1.55 1.50 1.48 1.64 1.87 1.97 1.81 1.65 1.74 1.65 1.59 1.61 1.56 1.44 1.30 1.33 1.45 1.40 1.27 1.21 1.20 1.22 1.21
1.91 1.87 1.78 1.56 1.31 1.22 1.14 1.14 1.13 1.04 1.07 1.25 1.30 1.27 1.31 1.43 1.49 1.47 1.54 1.61 1.69 1.62 1.61 1.72 1.75 1.70 1.60 1.45 1.32 1.18 1.14 1.25 1.40 1.60 1.69 1.69 1.55 1.50
1.90 1.96 1.70 1.45 1.28 1.13 1.13 1.13 1.02 0.92 1.03 1.12 1.14 1.14 1.16 1.28 1.50 1.65 1.71 1.73 1.68 1.50 1.37 1.41 1.52 1.68 1.70 1.48 1.27 1.17 1.16 1.22 1.34 1.54 1.69 1.80 1.85 1.85
1.70 1.78 1.64 1.46 1.30 1.17 1.12 1.09 1.02 1.06 1.15 1.16 1.18 1.24 1.27 1.35 1.45 1.53 1.63 1.69 1.67 1.46 1.33 1.31 1.38 1.58 1.63 1.47 1.35 1.25 1.24 1.31 1.34 1.53 1.78 1.89 1.92 1.96
1.73 1.73 1.70 1.55 1.42 1.32 1.29 1.32 1.36 1.35 1.28 1.29 1.33 1.35 1.34 1.34 1.39 1.44 1.52 1.58 1.54 1.35 1.23 1.31 1.40 1.58 1.61 1.58 1.48 1.28 1.26 1.25 1.27 1.46 1.75 1.85 1.88 1.92
1.62 1.58 1.67 1.65 1.57 1.49 1.45 1.46 1.46 1.41 1.36 1.38 1.37 1.36 1.34 1.32 1.35 1.38 1.40 1.41 1.39 1.31 1.24 1.22 1.39 1.65 1.74 1.54 1.25 1.17 1.17 1.14 1.20 1.43 1.59 1.63 1.53 1.52
1.41 1.44 1.54 1.59 1.55 1.51 1.46 1.43 1.39 1.43 1.46 1.40 1.35 1.36 1.35 1.33 1.35 1.38 1.39 1.42 1.39 1.35 1.33 1.37 1.45 1.54 1.58 1.38 1.13 0.96 1.08 1.15 1.25 1.36 1.47 1.46 1.35 1.33
1.24 1.30 1.36 1.43 1.46 1.48 1.49 1.49 1.42 1.43 1.45 1.45 1.41 1.40 1.41 1.35 1.35 1.35 1.32 1.34 1.42 1.46 1.47 1.42 1.38 1.36 1.36 1.37 1.32 1.16 1.03 1.21 1.35 1.35 1.34 1.40 1.36 1.32
1.13 1.17 1.21 1.24 1.29 1.35 1.37 1.42 1.41 1.39 1.39 1.42 1.38 1.37 1.40 1.41 1.40 1.39 1.40 1.43 1.44 1.47 1.45 1.30 1.27 1.44 1.60 1.70 1.57 1.35 1.32 1.32 1.41 1.45 1.46 1.52 1.49 1.44
1.12 1.15 1.12 1.12 1.16 1.23 1.30 1.37 1.39 1.40 1.43 1.42 1.40 1.40 1.39 1.41 1.40 1.42 1.45 1.49 1.50 1.50 1.48 1.51 1.62 1.72 1.77 1.72 1.57 1.53 1.63 1.63 1.60 1.56 1.47 1.45 1.40 1.31
1.07 1.05 1.03 1.05 1.09 1.16 1.24 1.29 1.35 1.42 1.41 1.41 1.44 1.42 1.37 1.38 1.38 1.42 1.42 1.44 1.50 1.59 1.70 1.72 1.70 1.66 1.65 1.70 1.68 1.63 1.60 1.69 1.76 1.70 1.53 1.41 1.27 1.13